Location: Csohesd
(46.2500°N, 22.6167°E)
Time: 06:02:56
(UTC+00:00)

Cosmos 2278 Rocket - Pass Details

Date: 21 October 2021
Orbit: 841 x 845 km, 71.0° (Epoch: 04 December)

Event Time Altitude Azimuth Distance (km) Brightness Sun altitude
Rises 18:29:32 0° 338° (NNW) 3,416 5.9 -31.0°
Reaches altitude 10° 18:32:15 10° 348° (NNW) 2,477 4.9 -31.5°
Enters shadow 18:34:32 21° 5° (N) 1,803 4.0 -31.9°
